| time (UTC) | temp F | wind direction | speed MPH | gust MPH | rain 1hr in | rain 24hr in | rain mn in | humidity % | barometer mb |
| 20260506090015 | 74 | 124 | 0.0 | 0.0 | 0.00 | 0.00 | 0.00 | 94 | 1005.7 |
| 20260506084513 | 74 | 121 | 0.0 | 1.0 | 0.00 | 0.00 | 0.00 | 93 | 1005.6 |
| 20260506083012 | 75 | 79 | 0.0 | 0.0 | 0.00 | 0.00 | 0.00 | 93 | 1005.6 |
| 20260506081510 | 75 | 122 | 0.0 | 0.0 | 0.00 | 0.00 | 0.00 | 92 | 1005.7 |
| 20260506073006 | 75 | 115 | 0.0 | 0.0 | 0.00 | 0.00 | 0.00 | 92 | 1006.1 |
| 20260506071507 | 75 | 84 | 0.0 | 2.0 | 0.00 | 0.00 | 0.00 | 92 | 1006.2 |
| 20260506061502 | 75 | 330 | 0.0 | 1.0 | 0.00 | 0.00 | 0.00 | 92 | 1006.4 |
| 20260506050105 | 75 | 219 | 0.0 | 1.0 | 0.00 | 0.00 | 0.00 | 90 | 1006.5 |
| 20260506044601 | 75 | 180 | 0.0 | 1.0 | 0.00 | 0.00 | 0.00 | 90 | 1006.3 |
| 20260506043054 | 76 | 333 | 0.0 | 0.0 | 0.00 | 0.00 | 0.00 | 90 | 1006.5 |
| 20260506041556 | 76 | 150 | 0.0 | 0.0 | 0.00 | 0.00 | 0.00 | 90 | 1006.2 |
| 20260506040053 | 76 | 122 | 0.0 | 0.0 | 0.00 | 0.00 | 0.00 | 90 | 1006.1 |
| 20260506034553 | 76 | 160 | 0.0 | 1.0 | 0.00 | 0.00 | 0.00 | 89 | 1006.0 |
| 20260506033052 | 76 | 129 | 0.0 | 0.0 | 0.00 | 0.00 | 0.00 | 90 | 1005.6 |
| 20260506031600 | 76 | 124 | 0.0 | 0.0 | 0.00 | 0.00 | 0.00 | 90 | 1005.5 |
| 20260506030109 | 76 | 314 | 0.0 | 1.0 | 0.00 | 0.00 | 0.00 | 89 | 1005.3 |
| 20260506024551 | 77 | 102 | 0.0 | 1.0 | 0.00 | 0.00 | 0.00 | 88 | 1005.2 |
| 20260506023050 | 77 | 231 | 0.0 | 1.0 | 0.00 | 0.00 | 0.00 | 88 | 1004.9 |
| 20260506021549 | 77 | 134 | 0.0 | 1.0 | 0.00 | 0.00 | 0.00 | 87 | 1004.3 |
| 20260506020049 | 77 | 205 | 0.0 | 0.0 | 0.00 | 0.00 | 0.00 | 86 | 1004.2 |
| 20260506014555 | 77 | 217 | 0.0 | 0.0 | 0.00 | 0.00 | 0.00 | 85 | 1004.1 |
| 20260506013050 | 78 | 84 | 0.0 | 0.0 | 0.00 | 0.00 | 0.00 | 84 | 1004.0 |
| 20260506011554 | 79 | 298 | 0.0 | 0.0 | 0.00 | 0.00 | 0.00 | 83 | 1004.2 |
| 20260506010051 | 80 | 298 | 0.0 | 0.0 | 0.00 | 0.00 | 0.00 | 81 | 1004.2 |
| 20260506004621 | 80 | 298 | 0.0 | 0.0 | 0.00 | 0.00 | 0.00 | 80 | 1004.1 |
| 20260506003045 | 81 | 120 | 0.0 | 0.0 | 0.00 | 0.00 | 0.00 | 79 | 1003.9 |
| 20260506001545 | 81 | 133 | 0.0 | 1.0 | 0.00 | 0.00 | 0.00 | 78 | 1003.9 |
| 20260506000046 | 82 | 96 | 0.0 | 1.0 | 0.00 | 0.00 | 0.00 | 76 | 1003.8 |
| 20260505234645 | 82 | 138 | 0.0 | 0.0 | 0.00 | 0.00 | 0.00 | 74 | 1003.7 |
| 20260505233043 | 83 | 134 | 0.0 | 0.0 | 0.00 | 0.00 | 0.00 | 75 | 1003.6 |
| 20260505231542 | 83 | 150 | 0.0 | 3.0 | 0.00 | 0.00 | 0.00 | 74 | 1003.7 |
| 20260505230045 | 83 | 271 | 0.0 | 1.0 | 0.00 | 0.00 | 0.00 | 74 | 1003.5 |
| 20260505224541 | 83 | 236 | 0.0 | 2.0 | 0.00 | 0.00 | 0.00 | 74 | 1003.4 |
| 20260505223056 | 83 | 151 | 0.0 | 0.0 | 0.00 | 0.00 | 0.00 | 75 | 1003.5 |
| 20260505221555 | 84 | 212 | 0.0 | 1.0 | 0.00 | 0.00 | 0.00 | 70 | 1003.4 |
| 20260505220038 | 84 | 146 | 0.0 | 2.0 | 0.00 | 0.00 | 0.00 | 71 | 1003.6 |
| 20260505214542 | 85 | 153 | 0.0 | 1.0 | 0.00 | 0.00 | 0.00 | 70 | 1003.8 |
| 20260505213034 | 85 | 354 | 0.0 | 1.0 | 0.00 | 0.00 | 0.00 | 69 | 1004.0 |
| 20260505211533 | 85 | 113 | 0.0 | 3.0 | 0.00 | 0.00 | 0.00 | 72 | 1003.9 |
| 20260505210031 | 84 | 210 | 0.0 | 2.0 | 0.00 | 0.00 | 0.00 | 71 | 1004.3 |
| 20260505204528 | 84 | 143 | 0.0 | 2.0 | 0.00 | 0.00 | 0.00 | 72 | 1004.5 |
| 20260505203024 | 83 | 108 | 0.0 | 3.0 | 0.00 | 0.00 | 0.00 | 74 | 1004.8 |
| 20260505201526 | 83 | 88 | 0.0 | 1.0 | 0.00 | 0.00 | 0.00 | 75 | 1005.1 |
| 20260505200024 | 82 | 108 | 0.0 | 1.0 | 0.00 | 0.00 | 0.00 | 75 | 1005.2 |
| 20260505194518 | 83 | 159 | 0.0 | 2.0 | 0.00 | 0.00 | 0.00 | 75 | 1005.4 |
| 20260505193015 | 82 | 155 | 0.0 | 1.0 | 0.00 | 0.00 | 0.00 | 75 | 1005.4 |
| 20260505191514 | 82 | 304 | 0.0 | 3.0 | 0.00 | 0.00 | 0.00 | 76 | 1005.8 |
| 20260505190011 | 81 | 240 | 0.0 | 1.0 | 0.00 | 0.00 | 0.00 | 78 | 1005.8 |
| 20260505184520 | 80 | 127 | 0.0 | 0.0 | 0.00 | 0.00 | 0.00 | 81 | 1005.9 |
| 20260505183013 | 79 | 295 | 0.0 | 0.0 | 0.00 | 0.00 | 0.00 | 80 | 1006.1 |
| 20260505181503 | 79 | 336 | 0.0 | 1.0 | 0.00 | 0.00 | 0.00 | 82 | 1006.2 |
| 20260505174559 | 77 | 296 | 0.0 | 1.0 | 0.00 | 0.00 | 0.00 | 84 | 1006.7 |
| 20260505173054 | 76 | 107 | 0.0 | 0.0 | 0.00 | 0.00 | 0.00 | 86 | 1007.0 |
| 20260505171551 | 75 | 119 | 0.0 | 1.0 | 0.00 | 0.00 | 0.00 | 87 | 1006.9 |
| 20260505170048 | 75 | 93 | 0.0 | 2.0 | 0.00 | 0.00 | 0.00 | 87 | 1007.1 |
| 20260505164546 | 74 | 165 | 0.0 | 1.0 | 0.00 | 0.00 | 0.00 | 88 | 1006.9 |
| 20260505163041 | 73 | 95 | 0.0 | 2.0 | 0.00 | 0.00 | 0.00 | 89 | 1006.9 |
| 20260505161540 | 73 | 237 | 0.0 | 1.0 | 0.00 | 0.00 | 0.00 | 90 | 1007.1 |
| 20260505153027 | 71 | 305 | 0.0 | 1.0 | 0.00 | 0.00 | 0.00 | 92 | 1007.0 |
| 20260505151525 | 71 | 98 | 0.0 | 2.0 | 0.00 | 0.00 | 0.00 | 92 | 1006.9 |
| 20260505124517 | 70 | 97 | 0.0 | 1.0 | 0.00 | 0.00 | 0.00 | 93 | 1005.9 |
| 20260505123015 | 70 | 136 | 0.0 | 3.0 | 0.00 | 0.00 | 0.00 | 93 | 1005.7 |
| 20260505121516 | 70 | 163 | 0.0 | 0.0 | 0.00 | 0.00 | 0.00 | 93 | 1005.5 |
| 20260505120014 | 69 | 110 | 0.0 | 0.0 | 0.00 | 0.00 | 0.00 | 93 | 1005.5 |
| 20260505114514 | 69 | 148 | 0.0 | 1.0 | 0.00 | 0.00 | 0.00 | 93 | 1005.4 |
| 20260505113012 | 69 | 126 | 0.0 | 0.0 | 0.00 | 0.00 | 0.00 | 93 | 1005.3 |
| 20260505111512 | 69 | 113 | 0.0 | 2.0 | 0.00 | 0.00 | 0.00 | 92 | 1005.4 |
| 20260505101513 | 69 | 134 | 0.0 | 3.0 | 0.00 | 0.00 | 0.00 | 92 | 1005.5 |
| 20260505100011 | 69 | 258 | 0.0 | 4.0 | 0.00 | 0.00 | 0.00 | 91 | 1005.9 |
| 20260505094518 | 69 | 100 | 0.0 | 2.0 | 0.00 | 0.00 | 0.00 | 91 | 1005.6 |
| 20260505093007 | 69 | 281 | 0.0 | 5.0 | 0.00 | 0.00 | 0.00 | 91 | 1005.8 |
| 20260505091507 | 69 | 270 | 0.0 | 3.0 | 0.00 | 0.00 | 0.00 | 91 | 1005.6 |